TimeCST,TemperatureF,Dew PointF,Humidity,Sea Level PressureIn,VisibilityMPH,Wind Direction,Wind SpeedMPH,Gust SpeedMPH,PrecipitationIn,Events,Conditions,WindDirDegrees,DateUTC
12:15 AM,46.4,32.0,57,30.21,10.0,South,12.7,-,N/A,,Overcast,170,2012-11-19 06:15:00
12:35 AM,46.4,32.0,57,30.21,10.0,South,12.7,-,N/A,,Overcast,170,2012-11-19 06:35:00
12:55 AM,46.4,32.0,57,30.20,10.0,South,11.5,-,N/A,,Overcast,170,2012-11-19 06:55:00
1:15 AM,46.4,32.0,57,30.20,10.0,SSE,12.7,-,N/A,,Overcast,160,2012-11-19 07:15:00
1:35 AM,46.4,32.0,57,30.20,10.0,SSE,9.2,-,N/A,,Mostly Cloudy,160,2012-11-19 07:35:00
1:55 AM,44.6,32.0,61,30.20,10.0,SSE,9.2,-,N/A,,Mostly Cloudy,160,2012-11-19 07:55:00
2:35 AM,46.4,32.0,57,30.20,10.0,South,11.5,-,N/A,,Overcast,170,2012-11-19 08:35:00
2:55 AM,46.4,32.0,57,30.19,10.0,South,10.4,-,N/A,,Overcast,170,2012-11-19 08:55:00
3:15 AM,46.4,32.0,57,30.18,10.0,SSE,10.4,-,N/A,,Overcast,160,2012-11-19 09:15:00
3:35 AM,46.4,32.0,57,30.18,10.0,SSE,9.2,-,N/A,,Overcast,160,2012-11-19 09:35:00
3:55 AM,44.6,32.0,61,30.17,10.0,SSE,8.1,-,N/A,,Overcast,160,2012-11-19 09:55:00
4:15 AM,44.6,32.0,61,30.17,10.0,SSE,6.9,-,N/A,,Mostly Cloudy,160,2012-11-19 10:15:00
4:35 AM,44.6,32.0,61,30.17,10.0,South,5.8,-,N/A,,Scattered Clouds,170,2012-11-19 10:35:00
4:55 AM,44.6,32.0,61,30.17,10.0,South,8.1,-,N/A,,Mostly Cloudy,180,2012-11-19 10:55:00
5:15 AM,44.6,32.0,61,30.17,10.0,South,5.8,-,N/A,,Overcast,180,2012-11-19 11:15:00
5:35 AM,44.6,32.0,61,30.17,10.0,South,4.6,-,N/A,,Mostly Cloudy,190,2012-11-19 11:35:00
5:55 AM,44.6,32.0,61,30.17,10.0,South,3.5,-,N/A,,Mostly Cloudy,180,2012-11-19 11:55:00
6:15 AM,44.6,33.8,66,30.17,10.0,South,5.8,-,N/A,,Mostly Cloudy,170,2012-11-19 12:15:00
6:35 AM,44.6,33.8,66,30.16,10.0,SSE,4.6,-,N/A,,Overcast,150,2012-11-19 12:35:00
6:55 AM,44.6,33.8,66,30.15,10.0,ESE,4.6,-,N/A,,Overcast,120,2012-11-19 12:55:00
7:35 AM,42.8,33.8,70,30.15,10.0,SE,8.1,-,N/A,,Overcast,140,2012-11-19 13:35:00
7:55 AM,42.8,33.8,70,30.16,10.0,SE,10.4,-,N/A,,Overcast,140,2012-11-19 13:55:00
8:15 AM,42.8,35.6,76,30.16,7.0,SE,6.9,-,N/A,,Overcast,140,2012-11-19 14:15:00
8:35 AM,42.8,35.6,76,30.15,7.0,SE,9.2,-,N/A,,Overcast,130,2012-11-19 14:35:00
8:55 AM,42.8,35.6,76,30.15,7.0,SE,9.2,-,N/A,,Overcast,140,2012-11-19 14:55:00
9:15 AM,42.8,35.6,76,30.15,7.0,SE,12.7,-,N/A,,Overcast,140,2012-11-19 15:15:00
9:35 AM,42.8,35.6,76,30.14,7.0,SE,12.7,-,N/A,,Overcast,140,2012-11-19 15:35:00
9:55 AM,44.6,35.6,71,30.14,7.0,SE,12.7,-,N/A,,Overcast,140,2012-11-19 15:55:00
10:15 AM,44.6,35.6,71,30.15,10.0,SSE,10.4,-,N/A,,Overcast,150,2012-11-19 16:15:00
10:35 AM,44.6,35.6,71,30.14,10.0,SSE,9.2,-,N/A,,Overcast,150,2012-11-19 16:35:00
11:16 AM,46.4,35.6,66,30.13,10.0,SSE,10.4,16.1,N/A,,Overcast,150,2012-11-19 17:16:00
11:35 AM,48.2,35.6,62,30.11,10.0,SE,9.2,-,N/A,,Overcast,140,2012-11-19 17:35:00
11:54 AM,48.2,37.4,66,30.11,10.0,SE,8.1,-,N/A,,Overcast,140,2012-11-19 17:54:00
12:54 PM,48.2,35.6,62,30.09,10.0,SE,9.2,-,N/A,,Overcast,140,2012-11-19 18:54:00
1:15 PM,50.0,35.6,58,30.08,10.0,SE,8.1,-,N/A,,Overcast,130,2012-11-19 19:15:00
2:14 PM,51.8,37.4,58,30.07,10.0,SSE,6.9,-,N/A,,Overcast,150,2012-11-19 20:14:00
2:34 PM,51.8,37.4,58,30.06,10.0,SSE,8.1,-,N/A,,Overcast,160,2012-11-19 20:34:00
3:14 PM,51.8,37.4,58,30.06,10.0,South,6.9,-,N/A,,Overcast,170,2012-11-19 21:14:00
3:34 PM,51.8,37.4,58,30.06,10.0,South,5.8,-,N/A,,Overcast,180,2012-11-19 21:34:00
3:54 PM,51.8,37.4,58,30.07,10.0,South,4.6,-,N/A,,Overcast,190,2012-11-19 21:54:00
4:14 PM,50.0,37.4,62,30.06,10.0,SSW,4.6,-,N/A,,Overcast,200,2012-11-19 22:14:00
4:36 PM,50.0,37.4,62,30.07,10.0,Calm,Calm,-,N/A,,Overcast,0,2012-11-19 22:36:00
4:54 PM,48.2,37.4,66,30.07,10.0,Calm,Calm,-,N/A,,Overcast,0,2012-11-19 22:54:00
5:14 PM,50.0,37.4,62,30.07,10.0,Calm,Calm,-,N/A,,Overcast,0,2012-11-19 23:14:00
5:34 PM,48.2,37.4,66,30.07,10.0,SSW,4.6,-,N/A,,Overcast,200,2012-11-19 23:34:00
5:54 PM,48.2,39.2,71,30.08,10.0,South,3.5,-,N/A,,Overcast,190,2012-11-19 23:54:00
6:14 PM,48.2,39.2,71,30.08,10.0,South,4.6,-,N/A,,Overcast,170,2012-11-20 00:14:00
6:34 PM,48.2,39.2,71,30.07,10.0,South,4.6,-,N/A,,Overcast,170,2012-11-20 00:34:00
7:16 PM,48.2,39.2,71,30.07,10.0,South,4.6,-,N/A,,Overcast,170,2012-11-20 01:16:00
7:36 PM,48.2,39.2,71,30.07,10.0,SSE,3.5,-,N/A,,Overcast,150,2012-11-20 01:36:00
8:17 PM,48.2,39.2,71,30.07,10.0,Calm,Calm,-,N/A,,Overcast,0,2012-11-20 02:17:00
8:34 PM,48.2,39.2,71,30.07,10.0,SSE,3.5,-,N/A,,Overcast,150,2012-11-20 02:34:00
9:14 PM,46.4,39.2,76,30.07,10.0,Calm,Calm,-,N/A,,Overcast,0,2012-11-20 03:14:00
9:34 PM,46.4,39.2,76,30.06,10.0,South,3.5,-,N/A,,Mostly Cloudy,180,2012-11-20 03:34:00
9:54 PM,46.4,39.2,76,30.06,10.0,South,3.5,-,N/A,,Overcast,180,2012-11-20 03:54:00
10:54 PM,46.4,39.2,76,30.06,10.0,SSW,3.5,-,N/A,,Overcast,210,2012-11-20 04:54:00
11:14 PM,46.4,41.0,81,30.06,10.0,South,3.5,-,N/A,,Overcast,180,2012-11-20 05:14:00
11:34 PM,46.4,41.0,81,30.06,7.0,South,3.5,-,N/A,,Overcast,180,2012-11-20 05:34:00